Tracking 17138 objects as of 3-July-2015
HD Live streaming from Space Station

DEMETER

Track DEMETER now!
10-day predictions
DEMETER is classified as:


NORAD ID: 28368
Int'l Code: 2004-025C
Perigee: 654.8 km
Apogee: 658.2 km
Inclination: 97.7 °
Period: 97.7 minutes
Semi major axis: 7027 km
RCS: 0.9257 m2 (medium)
Launch date: June 29, 2004
Source: France (FR)

Study of ionosperic perturbations in relation with seismic activity; global study of the Earth electromagnetic environment.
Your satellite tracking list
Your tracking list is empty





NASA's NSSDC Master Catalog

Two Line Element Set (TLE):
1 28368U 04025C   15183.50386734  .00000578  00000-0  95828-4 0  9998
2 28368 097.7304 205.8032 0002389 070.9178 289.2293 14.73673025590190

Source of the keplerian elements: AFSPC

N2YO: 227